Notices

What's New in latest Release from April 7th, 2021:

- Updated Glossary, including Speed of Maximum Gust, and Total Hourly Precipitation

- Updated national and regional climate services offices contacts and prices information

- Addition of station inventory lists for 1981-2010, 1971-2000, and 1961-1990 Normals.

If you haven't already, please take our survey and provide feedback about our website: https://eccc.sondage-survey.ca/f/LanguageSelection.aspx?s=442ca660-fcf1-47c0-95a9-59707d6fd709

Hourly Data Report for March 24, 2017

TORONTO CITY
ONTARIO

43°40'00.000" N
79°24'00.000" W
112.50 m
6158355
71508
XTO

Download Data

Hourly Data (March 2017)
Hourly Data Report for March 24, 2017
TIME
LST
Temp Definition
°C
Dew Point Definition
°C
Rel Hum Definition
%
Precip. Amount Definition
mm

Wind Dir Definition
10's deg

Wind Spd Definition
km/h
Visibility Definition
km
Stn Press Definition
kPa
Hmdx Definition


Wind Chill Definition


Weather Definition


00:00 2.0 -5.4 58 0.0 LegendMM LegendMM   101.07     LegendNANA
01:00 2.1 -4.6 61 0.0 LegendMM LegendMM   100.97     LegendNANA
02:00 2.2 -4.0 63 0.0 LegendMM LegendMM   100.83     LegendNANA
03:00 2.2 -3.6 66 0.0 LegendMM LegendMM   100.68     LegendNANA
04:00 1.5 -3.2 71 0.3 LegendMM LegendMM   100.72     LegendNANA
05:00 1.4 -1.2 83 0.7 LegendMM LegendMM   100.66     LegendNANA
06:00 1.4 0.5 93 3.9 LegendMM LegendMM   100.60     LegendNANA
07:00 1.7 0.8 94 1.2 LegendMM LegendMM   100.51     LegendNANA
08:00 2.1 1.0 93 0.0 LegendMM LegendMM   100.46     LegendNANA
09:00 2.9 1.4 90 0.0 LegendMM LegendMM   100.36     LegendNANA
10:00 3.9 1.8 86 0.0 LegendMM LegendMM   100.26     LegendNANA
11:00 4.8 1.9 82 0.0 LegendMM LegendMM   100.20     LegendNANA
12:00 6.0 2.1 76 0.0 LegendMM LegendMM   100.15     LegendNANA
13:00 9.5 4.3 70 0.0 LegendMM LegendMM   100.02     LegendNANA
14:00 12.1 5.4 64 0.0 LegendMM LegendMM   99.95     LegendNANA
15:00 11.6 5.3 65 0.0 LegendMM LegendMM   99.93     LegendNANA
16:00 11.0 4.6 64 0.0 LegendMM LegendMM   99.93     LegendNANA
17:00 9.9 4.2 67 0.0 LegendMM LegendMM   99.97     LegendNANA
18:00 11.7 5.6 66 0.0 LegendMM LegendMM   100.10     LegendNANA
19:00 9.0 3.8 70 0.0 LegendMM LegendMM   100.27     LegendNANA
20:00 7.2 3.3 76 0.0 LegendMM LegendMM   100.42     LegendNANA
21:00 6.6 2.8 77 0.0 LegendMM LegendMM   100.62     LegendNANA
22:00 5.8 2.8 81 0.0 LegendMM LegendMM   100.61     LegendNANA
23:00 5.5 2.7 82 0.0 LegendMM LegendMM   100.59     LegendNANA

Notes on Data Quality.

Legend

  • E = Estimated
  • M = Missing
  • NA = Not Available*
  • [empty] = Indicates an unobserved value
Date modified: